Melbourne Airport, Australia

8:55 PM AEST on August 24, 2017 (GMT +1000)
Melbourne International

Weather History for YMML - April, 2013

Change the Weather History Date:

Friday, April 19, 2013

  Actual Average Record
Temperature  
Mean Temperature 53 °F -  
Max Temperature 59 °F 62 °F 81 °F (2016)
Min Temperature 46 °F 46 °F 39 °F (1997)
Degree Days  
Heating Degree Days 12    
Growing Degree Days 3 (Base 50)    
Moisture  
Dew Point 38 °F    
Average Humidity 56    
Maximum Humidity 82    
Minimum Humidity 28    
Precipitation  
Precipitation 0.00 in 0.06 in - ()
Sea Level Pressure  
Sea Level Pressure 30.27 in    
Wind  
Wind Speed 14 mph ()    
Max Wind Speed 23 mph    
Max Gust Speed 32 mph    
Visibility 7.2 miles    
Events Rain    
Averages and records for this station are not official NWS values.
T = Trace of Precipitation, MM = Missing Value Source: Averaged Metar Reports

Daily Weather History Graph

Daily Weather History Graph

Search for Another Location

Airport or City:

Trip Planner

Search our weather history database for the weather conditions in past years. The results will help you decide how hot, cold, wet, or windy it might be!

Date:

Astronomy

Apr. 19, 2013 Rise Set
Actual Time 6:50 AM AEST 5:48 PM AEST
Civil Twilight 6:23 AM AEST 6:15 PM AEST
Nautical Twilight 5:53 AM AEST 6:45 PM AEST
Astronomical Twilight 5:22 AM AEST 7:16 PM AEST
Moon 1:44 PM AEST (4/19) No Moon Set
Length of Visible Light 11h 51m
Length of Day
10h 58m
First Quarter, 56% of the Moon is Illuminated
Apr 19
First Quarter
Apr 26
Full
May 2
Last Quarter
May 10
New
May 18
First Quarter

Hourly Weather History & Observations

Time (AEST) Temp. Windchill Dew Point Humidity Pressure Visibility Wind Dir Wind Speed Gust Speed Precip Events Conditions
12:00 AM 53 °F - 36 °F 40% 30.23 in 16 mi South 17.3 mph - -   Partly Cloudy
12:00 AM 53.6 °F - 35.6 °F 51% 30.21 in 6.2 mi South 17.3 mph - N/A   Mostly Cloudy
12:30 AM 51.8 °F - 35.6 °F 54% 30.21 in 6.2 mi South 13.8 mph - N/A   Scattered Clouds
1:00 AM 52 °F - 37 °F 45% 30.24 in - South 12.7 mph - -  
1:00 AM 51.8 °F - 37.4 °F 58% 30.21 in 6.2 mi South 12.7 mph - N/A   Scattered Clouds
1:30 AM 51.8 °F - 35.6 °F 54% 30.21 in 6.2 mi South 12.7 mph - N/A   Scattered Clouds
2:00 AM 51.8 °F - 35.6 °F 54% 30.21 in 6.2 mi South 11.5 mph - N/A   Mostly Cloudy
2:30 AM 51.8 °F - 41.0 °F 67% 30.21 in 6.2 mi SE 19.6 mph - N/A   Mostly Cloudy
3:00 AM 51 °F - 41 °F 60% 30.23 in 19 mi SE 16.1 mph - - Rain Light Rain Showers
3:00 AM 50.0 °F - 41.0 °F 71% 30.21 in 6.2 mi SE 16.1 mph - N/A Rain Light Rain Showers
3:30 AM 50.0 °F - 44.6 °F 82% 30.21 in 6.2 mi SSE 16.1 mph - N/A Rain Light Rain Showers
4:00 AM 50.0 °F - 42.8 °F 76% 30.21 in 6.2 mi South 11.5 mph - N/A Rain Light Rain Showers
4:30 AM 50.0 °F - 42.8 °F 76% 30.21 in 6.2 mi South 10.4 mph - N/A   Scattered Clouds
5:00 AM 50.0 °F - 42.8 °F 76% 30.24 in 6.2 mi SE 6.9 mph - N/A   Mostly Cloudy
5:30 AM 50.0 °F - 41.0 °F 71% 30.24 in 6.2 mi SE 8.1 mph - N/A   Mostly Cloudy
6:00 AM 48 °F - 40 °F 67% 30.26 in 19 mi SSE 9.2 mph - -   Partly Cloudy
6:00 AM 48.2 °F - 41.0 °F 76% 30.24 in 6.2 mi SSE 9.2 mph - N/A   Scattered Clouds
6:30 AM 48.2 °F - 39.2 °F 71% 30.24 in 6.2 mi SE 11.5 mph - N/A   Scattered Clouds
7:00 AM 48 °F - 39 °F 61% 30.27 in - SE 11.5 mph - -  
7:00 AM 48.2 °F - 39.2 °F 71% 30.27 in - SE 11.5 mph - N/A   Clear
7:30 AM 48.2 °F - 39.2 °F 71% 30.27 in 6.2 mi SSE 10.4 mph - N/A   Scattered Clouds
8:00 AM 51.8 °F - 37.4 °F 58% 30.27 in 6.2 mi SE 12.7 mph - N/A   Partly Cloudy
8:30 AM 53.6 °F - 37.4 °F 54% 30.30 in 6.2 mi SE 15.0 mph - N/A   Scattered Clouds
9:00 AM 55 °F - 35 °F 36% 30.31 in 25 mi SSE 17.3 mph - -   Partly Cloudy
9:00 AM 55.4 °F - 35.6 °F 47% 30.30 in 6.2 mi SSE 17.3 mph - N/A   Partly Cloudy
9:30 AM 55.4 °F - 37.4 °F 51% 30.30 in 6.2 mi SSE 19.6 mph - N/A   Partly Cloudy
10:00 AM 56 °F - 37 °F 37% 30.31 in - SSE 20.7 mph - -  
10:00 AM 57.2 °F - 37.4 °F 48% 30.30 in 6.2 mi SSE 20.7 mph - N/A   Scattered Clouds
10:30 AM 57.2 °F - 37.4 °F 48% 30.30 in 6.2 mi SSE 20.7 mph - N/A   Scattered Clouds
11:00 AM 59.0 °F - 35.6 °F 42% 30.30 in 6.2 mi SSE 19.6 mph - N/A   Mostly Cloudy
11:30 AM 59.0 °F - 32.0 °F 36% 30.30 in 6.2 mi SSE 18.4 mph - N/A   Mostly Cloudy
12:00 PM 57 °F - 33 °F 28% 30.30 in 25 mi SSE 17.3 mph - -   Partly Cloudy
12:00 PM 57.2 °F - 32.0 °F 38% 30.30 in 6.2 mi SSE 17.3 mph - N/A   Mostly Cloudy
12:30 PM 57.2 °F - 33.8 °F 41% 30.27 in 6.2 mi South 16.1 mph - N/A   Mostly Cloudy
1:00 PM 59.0 °F - 37.4 °F 45% 30.27 in 6.2 mi SSE 18.4 mph - N/A   Scattered Clouds
1:30 PM 59.0 °F - 37.4 °F 45% 30.27 in 6.2 mi South 19.6 mph - N/A   Scattered Clouds
2:00 PM 59.0 °F - 39.2 °F 48% 30.27 in 6.2 mi SSE 19.6 mph - N/A   Scattered Clouds
2:30 PM 59.0 °F - 39.2 °F 48% 30.24 in 6.2 mi South 18.4 mph - N/A   Mostly Cloudy
3:00 PM 58 °F - 37 °F 34% 30.26 in 25 mi South 21.9 mph - -   Partly Cloudy
3:00 PM 59.0 °F - 37.4 °F 45% 30.24 in 6.2 mi South 21.9 mph - N/A   Mostly Cloudy
3:30 PM 59.0 °F - 37.4 °F 45% 30.24 in 6.2 mi South 20.7 mph - N/A   Mostly Cloudy
3:50 PM 59.0 °F - 37.4 °F 45% 30.24 in 6.2 mi SSE 20.7 mph 32.2 mph N/A   Mostly Cloudy
4:00 PM 58 °F - 38 °F 35% 30.26 in - SSE 23.0 mph - -  
4:00 PM 59.0 °F - 37.4 °F 45% 30.24 in 6.2 mi SSE 23.0 mph - N/A   Mostly Cloudy
4:30 PM 59.0 °F - 37.4 °F 45% 30.24 in 6.2 mi SSE 23.0 mph - N/A   Scattered Clouds
5:00 PM 57.2 °F - 37.4 °F 48% 30.27 in 6.2 mi SSE 20.7 mph - N/A   Partly Cloudy
5:30 PM 55.4 °F - 37.4 °F 51% 30.27 in 6.2 mi SSE 21.9 mph - N/A   Scattered Clouds
6:00 PM 54 °F - 38 °F 44% 30.28 in 25 mi SSE 19.6 mph - -   Partly Cloudy
6:00 PM 53.6 °F - 39.2 °F 58% 30.27 in 6.2 mi SSE 19.6 mph - N/A   Partly Cloudy
6:30 PM 51.8 °F - 39.2 °F 62% 30.27 in 6.2 mi SSE 16.1 mph - N/A   Partly Cloudy
7:00 PM 53 °F - 39 °F 49% 30.30 in - SSE 18.4 mph - -  
7:00 PM 53.6 °F - 39.2 °F 58% 30.30 in 6.2 mi SSE 18.4 mph - N/A   Scattered Clouds
7:30 PM 51.8 °F - 39.2 °F 62% 30.30 in 6.2 mi SSE 15.0 mph - N/A   Partly Cloudy
8:00 PM 51.8 °F - 39.2 °F 62% 30.30 in 6.2 mi SE 13.8 mph - N/A   Partly Cloudy
8:30 PM 50.0 °F - 39.2 °F 66% 30.30 in 6.2 mi SE 12.7 mph - N/A   Partly Cloudy
9:00 PM 50 °F - 40 °F 59% 30.32 in 19 mi SE 9.2 mph - -   Partly Cloudy
9:00 PM 50.0 °F - 39.2 °F 66% 30.30 in 6.2 mi SE 9.2 mph - N/A   Partly Cloudy
9:30 PM 48.2 °F - 41.0 °F 76% 30.30 in - SE 8.1 mph - N/A   Clear
10:00 PM 48 °F - 40 °F 67% 30.32 in - SSE 10.4 mph - -  
10:00 PM 48.2 °F - 41.0 °F 76% 30.30 in - SSE 10.4 mph - N/A   Clear
10:30 PM 48.2 °F - 41.0 °F 76% 30.30 in - SSE 10.4 mph - N/A   Clear
11:00 PM 48.2 °F - 41.0 °F 76% 30.30 in 6.2 mi SE 9.2 mph - N/A   Scattered Clouds
11:30 PM 46.4 °F 42.9 °F 41.0 °F 81% 30.27 in 6.2 mi SSW 6.9 mph - N/A   Partly Cloudy